Location: Buckland
(65.9785°N, 161.1281°W)
Time: 04:46:36
(UTC+00:00)

Transit 4A - Pass Details

Date: 28 November 2020
Orbit: 864 x 980 km, 66.8° (Epoch: 26 January)

Event Time Altitude Azimuth Distance (km) Brightness Sun altitude
Rises 01:00:18 0° 290° (WNW) 3,691 11.2 -1.7°
Reaches altitude 10° 01:02:52 10° 290° (WNW) 2,744 10.6 -1.8°
Maximum altitude 01:09:19 82° 204° (SSW) 996 8.3 -2.2°
Drops below altitude 10° 01:15:41 10° 118° (ESE) 2,707 10.3 -2.6°
Sets 01:18:13 0° 118° (ESE) 3,639 10.9 -2.8°
